356  
ASUS41 KBTV 241510  
RWRBTV  
VERMONT REGIONAL WEATHER ROUNDUP  
NATIONAL WEATHER SERVICE BURLINGTON VT  
1100 AM EDT SUN OCT 24 2021  
 
NOTE: "FAIR" INDICATES FEW OR NO CLOUDS BELOW 12,000 FEET WITH NO  
SIGNIFICANT WEATHER AND/OR S TO VISIBILITY
.  
 
* THESE REPORTS ARE NOT UNDER NWS QUALITY CONTROL AND/OR DO NOT  
REPORT WEATHER SUCH AS PRECIPITATION AND FOG.
 
 
VTZ001>019-241600-  
_____VERMONT_____  
 
 
CITY SKY/WX TMP DP RH WIND PRES REMARKS
 
BURLINGTON MOSUNNY 47 33 58 VRB6 30.14F  
MONTPELIER SUNNY 45 28 51 NW8 30.16S  
MORRISVILLE MOSUNNY 47 29 49 NE6 30.13S  
ST. JOHNSBURY* N/A 46 27 47 MISG 30.10F  
LYNDONVILLE* FAIR 43 28 54 W9G16 30.12S  
RUTLAND* SUNNY 44 33 65 CALM 30.15F  
SPRINGFIELD SUNNY 48 31 51 E5 30.14F  
NEWPORT* CLOUDY 46 28 49 NW5 30.12S  
BENNINGTON SUNNY 46 35 65 CALM 30.15S  
LAKE EDEN* N/A 45 N/A N/A SW6 N/A  
 
_____LAKE CHAMPLAIN_____  
 
 
CITY SKY/WX TMP DP RH WIND PRES REMARKS
 
COLCHESTER RF* N/A 43 36 75 SW1 N/A  
DIAMOND ISL* N/A 43 36 75 SE6 N/A  
 

 
 
NYZ007-026>031-035-052-083-087-241600-  
_____NORTHERN NEW YORK_____  
 
 
CITY SKY/WX TMP DP RH WIND PRES REMARKS
 
PLATTSBURGH SUNNY 48 33 56 VRB5 30.13F  
SARANAC LAKE SUNNY 42 32 67 VRB5 30.10S  
MASSENA SUNNY 48 34 58 SW7 30.14S  
OGDENSBURG* FAIR 50 36 57 VRB5 30.10F  
WATERTOWN MOSUNNY 52 39 61 VRB6 30.12S  
FT DRUM SUNNY 47 36 67 SE8 30.11S  
ALBANY MOSUNNY 49 37 63 CALM 30.17S  
GLENS FALLS SUNNY 45 35 68 S7 30.16F  
 

 
NHZ002-005-011-241600-  
_____NEW HAMPSHIRE_____  
 
 
CITY SKY/WX TMP DP RH WIND PRES REMARKS
 
LEBANON SUNNY 45 30 55 CALM 30.14F  
KEENE SUNNY 45 31 58 VRB6 30.15F  
MT WASHINGTON FOG 18 18 100 NW54G61 N/A VSB 1/16WCI -7  
PLYMOUTH FAIR 46 28 48 W12G17 30.12S  
WHITEFIELD SUNNY 43 29 57 CALM 30.11R  
 

 
 
_____REGIONAL QUEBEC LOCATIONS_____  
 
 
CITY SKY/WX TMP DP RH WIND PRES REMARKS
 
MONTREAL PTSUNNY 48 34 57 W8 30.13S  
QUEBEC CITY MOSUNNY 45 30 57 W16 30.02F  
SHERBROOKE CLOUDY 45 32 61 W10 30.09R  
 
_____REGIONAL ONTARIO LOCATIONS_____  
 
 
CITY SKY/WX TMP DP RH WIND PRES REMARKS
 
OTTAWA MOSUNNY 48 36 61 SW6 30.11F  
 
______KEY______  
VSB - VISIBILITY IN MILES  
WCI - WIND CHILL INDEX  
HX - HEAT INDEX  

 
NNNN  
 
 
CLICK HERE TO GO TO PREVIOUS BULLETINS.

The Nexlab VT Page
The Nexlab NY Page Main Text Page